De Queen, AR

3:36 PM CST on November 24, 2017 (GMT -0600)
Helms Sevier County

Weather History for KDEQ - September, 2013

Change the Weather History Date:

Saturday, September 14, 2013

  Actual Average Record
Temperature  
Mean Temperature 75 °F 74 °F  
Max Temperature 88 °F 87 °F 102 °F (1980)
Min Temperature 61 °F 62 °F 40 °F (1902)
Degree Days  
Heating Degree Days 0 0  
Month to date heating degree days 0 0  
Since 1 July heating degree days 0 0  
Cooling Degree Days 10 10  
Month to date cooling degree days 224 169  
Year to date cooling degree days 1787 1761  
Growing Degree Days 24 (Base 50)    
Moisture  
Dew Point 55 °F    
Average Humidity 56    
Maximum Humidity 78    
Minimum Humidity 34    
Precipitation  
Precipitation 0.00 in 0.13 in 2.40 in (1950)
Month to date precipitation 0.56 1.71  
Year to date precipitation 20.86 33.30  
Snow  
Snow 0.00 in - - ()
Month to date snowfall 0.0  
Since 1 July snowfall 0.0  
Since 1 September snowfall 0.0  
Snow Depth 0.00 in    
Sea Level Pressure  
Sea Level Pressure 29.98 in    
Wind  
Wind Speed 7 mph (East)    
Max Wind Speed 14 mph    
Max Gust Speed 22 mph    
Visibility 10 miles    
Events      
T = Trace of Precipitation, MM = Missing Value Source: NWS Daily Summary

Daily Weather History Graph

Daily Weather History Graph

Search for Another Location

Airport or City:

Trip Planner

Search our weather history database for the weather conditions in past years. The results will help you decide how hot, cold, wet, or windy it might be!

Date:

Astronomy

Sep. 14, 2013 Rise Set
Actual Time 7:00 AM CDT 7:25 PM CDT
Civil Twilight 6:35 AM CDT 7:50 PM CDT
Nautical Twilight 6:05 AM CDT 8:19 PM CDT
Astronomical Twilight 5:35 AM CDT 8:49 PM CDT
Moon 3:57 PM CDT (9/14) 1:43 AM CDT (9/14)
Length of Visible Light 13h 15m
Length of Day
12h 24m
Waxing Gibbous, 72% of the Moon is Illuminated
Sep 14
Waxing Gibbous
Sep 19
Full
Sep 26
Last Quarter
Oct 4
New
Oct 11
First Quarter

Hourly Weather History & Observations

Time (CDT) Temp. Heat Index Dew Point Humidity Pressure Visibility Wind Dir Wind Speed Gust Speed Precip Events Conditions
12:53 AM 72.0 °F - 55.0 °F 55% 29.96 in 10.0 mi East 10.4 mph - N/A   Clear
1:53 AM 70.0 °F - 55.0 °F 59% 29.97 in 10.0 mi East 6.9 mph - N/A   Clear
2:53 AM 66.9 °F - 55.9 °F 68% 29.97 in 10.0 mi East 4.6 mph - N/A   Clear
3:53 AM 64.9 °F - 55.9 °F 73% 29.96 in 10.0 mi East 4.6 mph - N/A   Clear
4:53 AM 63.0 °F - 55.9 °F 78% 29.97 in 10.0 mi ENE 4.6 mph - N/A   Clear
5:53 AM 62.1 °F - 55.9 °F 80% 29.99 in 10.0 mi ENE 3.5 mph - N/A   Clear
6:53 AM 62.1 °F - 55.0 °F 78% 30.00 in 9.0 mi ENE 4.6 mph - N/A   Partly Cloudy
7:53 AM 64.9 °F - 55.0 °F 70% 30.03 in 10.0 mi East 5.8 mph - N/A   Clear
8:53 AM 68.0 °F - 55.0 °F 63% 30.04 in 10.0 mi East 6.9 mph - N/A   Scattered Clouds
9:53 AM 72.0 °F - 55.0 °F 55% 30.04 in 10.0 mi East 9.2 mph - N/A   Clear
10:53 AM 75.9 °F - 55.0 °F 48% 30.04 in 10.0 mi East 8.1 mph - N/A   Clear
11:53 AM 80.1 °F 80.0 °F 54.0 °F 40% 30.03 in 10.0 mi East 11.5 mph - N/A   Clear
12:53 PM 82.0 °F 81.2 °F 53.1 °F 37% 30.01 in 10.0 mi ENE 9.2 mph - N/A   Partly Cloudy
1:53 PM 84.0 °F 82.9 °F 55.0 °F 37% 29.99 in 10.0 mi East 10.4 mph 17.3 mph N/A   Clear
2:53 PM 86.0 °F 84.5 °F 55.0 °F 35% 29.96 in 10.0 mi East 9.2 mph - N/A   Clear
3:53 PM 86.0 °F 84.5 °F 55.0 °F 35% 29.93 in 10.0 mi SE 8.1 mph - N/A   Clear
4:53 PM 87.1 °F 85.7 °F 55.9 °F 35% 29.92 in 10.0 mi ESE 6.9 mph - N/A   Clear
5:53 PM 86.0 °F 84.7 °F 55.9 °F 36% 29.92 in 10.0 mi East 9.2 mph - N/A   Clear
6:53 PM 82.9 °F 82.0 °F 55.0 °F 38% 29.93 in 10.0 mi SE 6.9 mph - N/A   Clear
7:53 PM 77.0 °F - 55.0 °F 47% 29.94 in 10.0 mi ESE 4.6 mph - N/A   Clear
8:53 PM 75.0 °F - 53.1 °F 46% 29.96 in 10.0 mi ESE 8.1 mph - N/A   Clear
9:53 PM 69.1 °F - 55.0 °F 61% 29.98 in 10.0 mi East 4.6 mph - N/A   Clear
10:53 PM 70.0 °F - 51.1 °F 51% 29.99 in 10.0 mi East 8.1 mph - N/A   Clear
11:53 PM 66.9 °F - 52.0 °F 59% 30.00 in 10.0 mi ENE 6.9 mph - N/A   Clear